GFSCGP_prec_cthk_021.txt.gz
RH
47 49 42 38 36 37 42 46 36 27 24 29 35 36 32 35 36 40 39 38 33 35 41 41 38 41 41 46 42 38 43 43 44 41 36 33 33 41 63 76 86 87 85 85
44 36 37 40 39 43 46 40 31 21 21 32 36 36 32 33 35 38 36 35 35 39 37 36 39 44 46 43 40 41 49 49 40 38 31 29 35 45 66 78 84 87 87 85
38 30 36 39 43 44 41 33 26 21 23 33 37 36 33 32 35 37 34 34 32 33 34 36 40 44 44 42 39 48 45 40 35 31 26 31 37 45 56 73 79 84 86 89
32 36 38 38 38 36 33 26 21 19 28 36 42 44 33 31 32 33 32 29 29 29 29 34 40 42 37 36 45 46 43 36 29 24 27 35 40 46 53 70 76 86 87 87
25 28 29 32 28 31 26 21 22 21 25 36 43 46 30 33 32 33 28 25 26 29 32 37 30 33 37 39 47 47 41 27 21 24 31 42 39 47 55 70 79 86 89 81
21 20 23 23 24 22 19 20 21 21 25 37 39 43 31 29 32 27 26 29 31 35 33 34 32 34 36 43 47 44 29 20 21 29 37 40 42 48 55 74 84 85 89 82
23 22 19 17 18 18 20 22 29 34 37 41 36 36 23 29 30 27 30 32 36 35 37 38 29 32 37 44 40 31 20 18 27 35 36 34 40 52 66 76 87 84 87 81
25 24 18 15 15 15 16 18 30 40 45 37 34 34 24 30 30 29 34 34 36 38 40 37 34 34 38 39 27 22 17 23 30 34 32 35 48 65 78 83 85 84 83 74
30 24 20 16 16 14 16 19 17 30 34 37 35 24 28 31 29 36 37 37 40 40 42 36 35 37 38 25 21 18 19 27 33 33 36 45 56 73 83 78 85 87 86 76
31 28 21 19 18 14 15 17 20 30 38 40 33 28 30 29 32 36 36 39 41 43 41 35 34 37 25 20 19 17 26 27 30 36 42 49 60 78 82 80 84 87 82 80
35 32 27 22 19 17 18 18 17 24 29 39 36 30 26 28 30 31 35 39 42 41 37 35 35 29 21 18 18 20 30 28 31 33 43 50 61 76 78 77 87 83 80 75
46 37 33 21 19 18 16 15 19 24 30 27 33 27 26 26 24 29 35 40 40 40 35 32 33 25 19 17 18 24 26 29 30 33 43 52 60 67 78 74 83 80 78 76
58 44 35 31 25 22 17 14 17 23 31 36 34 26 24 27 30 32 37 42 41 36 34 34 33 24 18 17 18 23 25 27 27 34 44 51 54 64 77 76 79 81 80 79
61 57 37 26 22 19 19 17 19 24 26 25 28 26 27 30 32 34 36 42 40 39 36 35 32 23 16 17 17 20 26 25 22 31 44 45 50 68 81 77 78 82 80 74
63 60 48 33 25 22 21 18 18 22 22 26 22 27 28 31 31 31 38 43 44 39 35 38 29 21 16 17 17 19 23 24 21 28 42 38 51 70 77 77 80 85 88 86
66 59 53 42 28 23 25 24 20 20 23 25 25 25 25 30 30 34 37 44 43 36 35 39 31 20 15 16 16 17 20 20 21 27 38 33 44 60 72 70 76 79 84 88
74 65 51 50 32 27 33 23 24 22 23 22 26 23 26 30 30 33 36 39 38 34 34 36 29 18 15 15 14 16 18 19 20 22 31 31 38 48 55 60 69 79 84 86
74 67 59 54 43 42 19 21 22 24 22 22 23 24 25 26 28 32 34 35 34 36 36 36 30 17 15 16 14 15 17 19 20 20 26 27 31 37 41 43 43 46 56 66
74 68 63 71 56 27 22 23 23 25 23 23 22 23 26 26 29 33 34 33 32 35 35 34 31 20 14 17 14 15 16 18 20 19 20 23 25 31 29 28 25 29 33 43
78 73 65 75 68 38 33 30 29 28 25 23 24 26 28 29 30 30 29 30 34 36 37 34 32 27 20 18 16 13 15 16 18 18 17 19 23 30 29 25 23 21 28 36
91 86 78 79 73 52 49 37 36 33 29 33 27 26 31 28 25 23 24 26 32 34 35 35 32 31 27 21 18 14 12 14 16 18 18 15 18 22 30 29 24 22 21 26
98 98 89 85 80 63 56 42 46 51 43 39 30 25 27 26 25 24 24 25 29 31 33 36 34 31 31 28 27 19 13 11 15 18 18 15 14 16 22 26 25 23 20 20
96 98 99 97 88 71 67 54 55 56 50 43 38 33 32 30 25 23 23 24 26 29 31 34 34 33 32 32 33 24 16 13 13 16 16 16 16 14 15 17 21 21 20 19
94 95 97 93 92 77 69 57 58 59 53 46 42 39 35 31 25 22 22 24 25 26 31 33 33 34 33 32 32 29 17 16 12 13 14 15 16 16 15 16 16 16 16 16
97 95 97 94 90 84 71 63 56 61 56 47 40 34 31 28 24 21 21 23 24 24 27 31 32 33 33 33 33 30 20 16 15 12 13 14 16 17 16 16 14 14 15 12
90 94 95 98 86 95 77 67 56 53 56 53 46 36 29 26 24 22 20 20 23 24 25 28 31 33 34 32 31 29 23 16 14 12 12 11 14 16 17 16 16 16 15 14

GFSCGP_prec_cthk_024.txt.gz
RH
38 47 45 35 37 38 41 41 39 38 36 42 35 33 24 29 34 35 33 32 34 33 27 32 35 36 40 44 46 48 43 41 49 43 45 42 35 32 38 47 61 75 82 83
33 38 38 44 47 47 49 45 42 37 40 35 32 29 24 32 34 35 36 33 32 28 31 32 32 37 39 44 47 39 37 45 43 43 44 35 31 33 42 48 59 72 79 85
24 24 40 46 48 50 47 44 41 41 40 38 34 25 24 33 37 37 32 32 29 28 29 29 31 38 40 41 41 39 39 45 43 45 36 29 28 37 44 48 60 74 80 85
22 23 38 45 49 51 49 45 46 46 44 43 28 37 25 33 37 35 30 29 24 25 27 32 30 34 34 35 37 35 44 46 45 37 28 26 35 44 44 50 63 73 83 85
22 21 32 39 45 50 44 45 48 48 43 36 28 38 29 32 37 32 29 27 26 26 28 32 29 29 30 31 33 41 44 43 37 25 25 32 38 42 44 54 75 82 85 83
24 21 29 33 42 47 45 46 48 46 40 40 27 32 24 30 34 30 28 29 28 31 37 32 32 31 31 34 38 42 40 34 23 23 29 35 35 41 50 66 81 84 87 81
30 23 25 28 35 38 41 42 49 42 41 41 23 28 20 28 28 28 28 30 33 41 34 33 34 34 32 34 39 39 31 20 19 27 33 32 35 50 67 80 83 82 88 77
36 30 23 24 27 35 35 35 37 38 42 34 21 30 23 29 27 27 27 32 35 37 38 35 35 37 33 38 37 28 19 17 24 30 32 37 46 63 78 77 82 85 83 68
38 33 22 20 22 24 31 31 25 26 30 38 30 23 17 27 26 28 27 34 36 37 36 37 37 33 36 35 25 19 16 24 29 35 38 44 52 71 79 78 84 86 85 63
35 35 26 24 21 21 21 21 26 26 31 39 33 26 21 24 27 29 36 36 39 36 38 38 32 33 31 26 19 16 20 28 32 37 43 48 58 72 77 81 87 83 83 63
41 37 31 27 22 20 23 23 22 20 30 36 37 30 21 23 28 31 32 36 35 35 39 34 30 30 27 20 18 16 24 27 31 36 43 52 61 66 76 78 85 75 69 61
56 50 37 28 24 22 18 18 17 18 23 26 31 28 20 23 26 30 33 33 35 40 39 28 31 30 23 18 16 17 24 27 29 34 44 53 57 65 75 77 78 76 75 69
66 61 45 35 31 26 21 18 18 22 24 23 27 26 22 24 24 28 33 35 36 41 33 31 35 29 20 16 16 17 24 26 24 32 44 48 58 71 78 78 79 77 76 74
71 63 59 39 31 26 24 23 21 21 25 26 18 25 26 26 27 29 35 34 38 37 34 33 35 26 19 15 16 18 21 26 21 32 45 42 61 76 75 78 79 74 74 76
77 66 56 48 41 37 30 22 20 18 17 21 21 26 28 26 29 34 38 36 39 39 33 35 34 24 17 15 16 18 19 22 21 36 42 43 66 71 76 80 81 83 79 79
84 73 59 46 39 38 36 29 24 20 16 18 22 24 29 26 33 40 36 39 43 38 34 35 33 24 16 14 15 17 19 19 21 35 35 41 62 68 69 73 75 82 85 83
83 80 66 54 44 44 38 26 26 23 18 17 23 22 27 27 32 35 34 37 43 39 34 33 30 22 15 13 14 16 17 19 20 30 31 36 50 57 59 71 76 82 84 87
78 79 72 63 59 49 28 24 24 23 20 18 17 24 27 26 27 33 32 33 39 39 35 34 31 23 14 14 14 15 17 18 20 27 27 30 41 41 45 46 53 61 71 80
76 80 76 76 72 41 30 37 35 24 22 22 21 22 27 27 29 34 30 32 36 38 36 34 32 25 14 16 15 15 17 18 19 21 26 24 31 31 28 31 33 36 44 51
83 83 79 77 76 51 50 41 40 35 25 34 34 28 28 29 33 31 26 31 35 37 38 37 34 29 21 16 18 15 15 17 18 18 22 24 24 27 23 21 23 30 38 36
97 97 90 80 72 61 57 44 39 30 33 37 38 38 34 28 26 25 26 30 33 34 36 37 34 31 26 19 17 17 14 15 16 18 18 20 22 28 25 20 19 24 31 34
96 98 94 85 78 73 64 49 49 51 42 41 39 38 35 30 26 26 31 27 28 29 35 36 35 32 29 24 19 18 12 13 16 18 19 16 18 24 30 26 20 19 23 26
95 97 98 96 83 79 76 63 53 47 46 42 41 38 35 31 26 27 30 26 25 26 32 35 36 32 32 31 27 20 15 12 14 17 17 15 15 17 23 27 24 21 20 22
94 96 93 92 88 80 74 67 55 52 49 45 44 39 36 32 28 27 29 26 25 27 31 33 36 34 32 32 32 29 20 13 13 15 17 15 14 13 16 21 22 20 18 17
98 95 96 88 87 82 75 72 60 55 49 48 46 42 37 31 29 27 27 26 24 25 30 33 34 34 34 32 33 32 28 17 14 13 15 14 14 14 14 16 15 16 16 14
93 90 94 93 89 87 81 74 65 59 52 50 49 43 38 33 31 32 26 26 25 26 27 29 31 34 35 34 33 33 32 20 16 14 13 13 14 15 14 14 15 16 16 16

GFSCGP_prec_cthk_030.txt.gz
RH
22 21 21 19 31 39 42 43 41 40 42 44 34 29 34 39 38 37 39 36 27 28 34 34 33 35 35 28 28 33 37 43 48 49 47 46 48 50 46 44 40 36 47 55
31 22 11 23 34 37 40 42 40 43 44 42 41 41 41 43 41 38 37 33 26 33 37 36 33 34 31 28 33 35 39 40 41 43 45 47 49 50 45 39 34 41 48 60
25 13 18 20 30 34 33 35 39 38 38 41 40 38 35 40 40 38 36 29 27 34 37 34 35 35 29 28 29 30 35 35 39 42 45 42 40 40 37 33 40 44 56 74
26 18 22 22 24 28 28 30 32 37 36 35 41 42 39 40 38 38 32 27 29 36 36 34 34 31 28 30 29 33 32 31 35 37 40 40 39 37 31 35 44 57 72 83
21 21 24 23 16 26 21 27 31 34 35 38 40 47 34 41 38 35 28 23 33 38 35 32 29 27 31 33 33 35 31 33 36 35 37 33 32 28 34 42 55 76 80 88
26 25 25 17 23 22 24 25 33 36 36 42 41 50 43 37 35 29 24 25 32 37 34 33 27 30 33 36 34 35 34 37 35 33 30 27 26 34 44 59 77 85 86 91
35 32 27 23 24 23 24 27 36 44 44 44 44 50 41 35 28 24 21 27 36 36 33 29 30 33 36 34 36 33 37 34 32 31 27 26 35 42 55 73 80 83 87 87
43 43 27 24 23 22 22 25 29 41 45 46 46 43 35 27 24 21 21 23 37 38 36 30 33 36 34 37 34 32 29 28 28 28 28 36 44 55 63 77 80 83 80 73
53 43 31 27 24 24 26 27 27 36 41 42 41 38 31 27 20 14 16 23 33 35 32 33 38 36 39 38 32 26 27 28 28 33 36 42 50 59 64 74 78 81 71 66
70 60 41 28 28 26 25 29 33 33 48 51 38 33 31 23 18 15 23 26 30 33 35 39 39 37 41 35 26 26 24 29 31 35 40 48 53 57 67 78 76 75 69 65
76 67 56 44 31 23 26 30 31 36 40 46 40 30 23 20 18 25 26 28 30 33 36 41 40 39 36 32 27 22 26 29 31 35 38 49 54 66 73 79 69 71 71 64
74 73 70 48 29 29 26 26 32 35 41 37 32 25 20 22 23 24 28 31 32 34 38 39 37 34 33 29 24 22 24 28 30 30 39 50 59 72 77 73 68 72 67 66
74 69 68 51 44 34 31 27 30 33 38 37 33 26 19 23 27 29 30 33 34 35 36 36 32 33 30 26 22 21 23 26 27 29 44 53 68 72 77 74 73 77 70 69
76 76 68 53 39 33 29 27 31 33 37 34 30 23 21 25 31 33 35 34 34 34 37 31 30 28 26 25 20 20 22 25 25 36 44 60 72 77 77 75 76 80 78 72
82 60 67 69 62 49 46 31 30 34 34 32 28 23 18 31 30 34 35 35 34 34 35 30 32 25 25 24 18 19 22 24 26 39 47 64 73 75 75 80 75 84 84 82
85 70 67 67 58 53 46 39 31 29 31 29 26 19 20 25 28 34 37 36 35 37 35 30 31 26 25 22 17 19 21 22 30 36 50 65 70 74 74 80 81 79 80 83
95 82 59 61 59 57 48 42 34 30 25 23 20 17 24 29 31 32 34 38 39 38 34 33 30 25 25 21 17 18 20 22 31 36 46 54 60 67 75 79 83 87 87 90
86 91 73 56 59 63 57 45 36 34 26 21 20 19 24 31 35 31 34 38 41 40 37 35 30 27 25 20 16 18 20 21 29 35 38 48 47 52 58 68 73 80 87 91
79 87 92 69 64 49 59 53 46 37 36 33 28 22 26 34 33 31 32 35 37 42 41 38 32 24 23 19 16 17 19 19 25 31 33 36 36 37 42 44 52 71 83 87
71 82 92 75 63 54 80 58 49 44 44 39 35 36 40 40 39 36 37 40 38 40 41 40 36 28 24 19 17 17 18 18 22 27 27 29 31 32 34 33 40 59 72 69
77 80 85 81 69 71 78 61 52 47 51 46 39 44 42 41 40 36 37 37 37 40 40 44 39 32 27 17 16 16 17 18 18 26 25 25 30 30 29 29 36 38 44 52
84 81 76 77 73 81 77 65 66 63 52 46 41 44 42 40 40 36 38 36 36 40 41 43 42 37 30 22 14 17 16 17 17 21 25 24 27 27 25 24 33 36 33 30
98 94 88 79 90 84 77 73 66 59 53 46 43 40 43 43 41 39 40 38 37 40 42 45 45 42 35 29 18 16 14 17 17 18 22 25 25 26 23 22 27 35 34 31
90 89 90 81 82 76 80 73 69 60 55 51 46 43 44 46 44 41 40 38 38 38 44 45 45 43 39 33 26 22 14 15 17 19 20 23 24 27 26 23 22 29 32 32
90 90 92 84 82 81 81 80 72 64 58 54 52 46 45 45 45 43 40 38 38 35 39 42 43 42 43 36 30 29 24 15 16 18 19 19 22 21 29 28 25 23 26 28
91 90 95 97 86 86 85 80 77 72 61 56 54 49 45 46 46 44 42 39 38 35 35 39 39 42 45 40 35 32 31 23 13 15 19 18 18 18 25 28 25 21 20 19

GFSCGP_prec_cthk_033.txt.gz
RH
26 28 19 15 21 25 29 36 34 34 37 45 39 40 44 39 35 33 33 33 35 36 38 33 33 36 35 37 42 40 35 38 45 52 55 52 56 52 51 51 51 51 37 35
28 25 11 16 15 19 24 28 24 29 36 43 43 40 41 39 36 36 36 36 37 38 37 29 38 38 37 40 40 35 38 43 43 49 48 49 48 50 50 52 51 41 31 38
24 14 21 18 17 20 18 21 22 25 37 41 43 43 34 36 37 36 32 32 40 38 34 29 39 40 38 42 39 36 38 39 35 40 40 42 45 43 44 43 38 32 36 51
27 15 21 21 20 18 18 19 21 27 37 40 41 35 26 32 33 33 33 42 44 36 32 32 41 40 40 38 35 35 37 37 38 35 38 39 40 44 41 36 33 44 55 76
18 23 18 25 15 20 13 23 28 32 36 35 28 33 21 28 28 33 42 43 41 35 29 41 41 41 40 36 34 39 40 39 35 33 39 36 35 35 28 32 44 60 80 86
21 23 26 17 19 23 19 23 28 34 32 34 23 35 25 27 29 36 42 44 39 33 31 42 40 42 38 38 40 41 40 34 34 34 33 28 32 26 38 50 60 75 82 87
21 30 32 23 23 22 24 24 30 34 30 24 24 36 24 26 32 36 37 40 32 26 38 40 40 38 38 41 45 42 37 34 31 29 27 26 25 34 42 55 73 78 80 83
26 30 28 21 24 19 25 25 24 28 29 26 28 33 26 35 36 36 34 27 26 37 40 39 38 36 39 44 44 41 38 27 26 28 31 31 37 46 57 64 76 79 78 77
53 30 27 32 28 25 24 30 16 28 26 27 28 35 40 37 32 26 25 29 27 38 43 41 36 37 43 45 42 41 32 27 26 30 31 36 42 48 58 68 78 78 71 62
68 62 26 33 32 28 27 20 31 26 30 32 33 35 38 32 25 22 18 18 25 35 42 40 37 40 45 43 39 36 27 24 28 29 31 37 51 52 67 77 78 73 70 64
74 77 58 36 41 29 25 33 26 26 26 32 36 41 36 32 27 25 17 18 26 37 38 39 41 45 44 40 36 28 22 23 28 31 33 43 52 68 73 77 74 74 67 60
69 85 78 48 45 32 27 30 31 28 31 34 41 39 30 26 22 27 26 26 29 36 35 40 45 45 42 35 33 22 21 23 31 32 37 48 61 72 74 74 73 70 65 61
75 73 72 71 61 41 36 33 33 34 40 40 37 38 25 27 30 30 34 37 34 35 39 43 45 43 37 36 24 19 20 25 32 34 43 56 66 76 75 74 74 75 70 67
80 67 75 86 58 39 38 34 36 41 44 42 36 34 25 30 31 35 32 34 38 40 42 41 42 37 35 29 23 19 22 27 32 36 46 61 74 77 77 77 78 80 79 69
91 57 59 79 84 62 35 36 36 41 43 40 39 36 31 42 47 39 36 39 41 40 40 41 37 34 28 27 20 22 25 29 29 39 50 64 73 74 77 80 80 83 82 79
92 61 60 68 84 74 49 39 36 37 42 39 36 36 34 42 34 38 38 38 42 44 42 42 34 33 28 24 17 23 24 27 28 40 53 63 72 72 76 81 81 77 84 85
84 73 59 87 82 73 54 46 39 37 41 39 38 33 27 36 28 34 40 41 45 46 46 40 35 32 28 23 15 19 22 24 27 40 46 51 61 71 78 82 83 83 86 88
79 75 70 73 83 89 51 49 44 36 37 38 40 38 31 31 34 42 44 45 45 47 45 42 36 32 27 21 15 18 23 21 29 38 42 45 49 54 69 75 78 82 85 88
72 71 76 86 87 63 69 56 48 45 39 38 40 39 29 31 37 42 41 55 48 53 48 43 36 31 27 20 14 16 22 20 31 35 37 37 36 40 42 59 79 82 84 92
68 76 83 79 90 80 92 62 57 56 62 52 44 44 44 47 38 48 42 48 52 52 49 45 37 33 27 20 15 15 21 21 26 30 30 34 34 35 37 45 68 67 77 84
63 71 78 71 75 83 80 71 55 54 80 58 47 42 40 43 49 53 44 45 45 46 48 43 42 34 32 22 17 15 18 19 23 27 27 31 33 28 31 29 47 56 58 76
74 75 65 69 73 98 80 76 68 77 68 63 57 44 41 46 48 50 47 42 40 49 46 42 42 40 34 27 18 15 16 18 21 26 26 29 27 28 26 27 37 38 38 58
89 83 83 76 92 93 84 81 79 72 66 60 58 51 46 51 54 52 47 46 42 45 46 43 43 42 39 31 19 18 15 16 20 23 26 26 27 27 25 24 34 35 32 45
98 93 85 77 88 89 88 82 76 74 69 63 57 52 49 56 58 55 51 47 47 43 43 44 43 42 43 38 29 22 16 15 18 19 22 23 26 25 26 25 28 36 35 34
94 90 86 91 94 82 77 84 77 72 67 60 56 52 51 56 61 58 54 51 48 44 42 43 43 45 47 40 34 28 24 15 16 17 18 21 24 26 26 25 26 33 35 33
90 91 96 96 90 83 74 72 76 73 67 60 55 54 55 57 55 57 56 52 50 44 42 43 43 44 47 42 40 34 30 23 15 16 18 18 20 23 27 25 23 24 27 27